Weather History for Sedalia, MO

Change the Weather History Date:

Sunday, July 28, 2013

  Actual Average Record
Temperature  
Mean Temperature 69 °F 80 °F  
Max Temperature 81 °F 90 °F 104 °F (2011)
Min Temperature 57 °F 69 °F 47 °F (1971)
Degree Days  
Heating Degree Days 0 0  
Month to date heating degree days 0 0  
Since 1 June heating degree days 9 6  
Since 1 July heating degree days 0 0  
Cooling Degree Days 4 14  
Month to date cooling degree days 351 389  
Year to date cooling degree days 806 832  
Since 1 June cooling degree days 658 693  
Growing Degree Days 20 (Base 50)    
Moisture  
Dew Point 53 °F    
Average Humidity 60    
Maximum Humidity 87    
Minimum Humidity 32    
Precipitation  
Precipitation 0.00 in 0.09 in 1.30 in (1967)
Month to date precipitation 1.25 3.89  
Year to date precipitation 26.66 24.13  
Sea Level Pressure  
Sea Level Pressure 30.04 in    
Wind  
Wind Speed 3 mph (SW)    
Max Wind Speed 12 mph    
Max Gust Speed 16 mph    
Visibility 10 miles    
Events      
T = Trace of Precipitation, MM = Missing Value Source: NWS Daily Summary

Daily Weather History Graph

Daily Weather History Graph

Search for Another Location

Airport:

Trip Planner

Search our weather history database for the weather conditions in past years. The results will help you decide how hot, cold, wet, or windy it might be!

Date:

Astronomy

Jul. 28, 2013 Rise Set
Actual Time 6:10 AM CDT 8:26 PM CDT
Civil Twilight 5:40 AM CDT 8:56 PM CDT
Nautical Twilight 5:04 AM CDT 9:33 PM CDT
Astronomical Twilight 4:23 AM CDT 10:13 PM CDT
Moon 11:54 PM CDT (7/28) 12:48 PM CDT (7/28)
Length of Visible Light 15h 15m
Length of Day
14h 16m
Waning Gibbous, 60% of the Moon is Illuminated
Jul 28
Waning Gibbous
Jul 29
Last Quarter
Aug 6
New
Aug 14
First Quarter
Aug 20
Full

Hourly Weather History & Observations

Time (CDT) Temp. Dew Point Humidity Pressure Visibility Wind Dir Wind Speed Gust Speed Precip Events Conditions
12:53 AM 60.1 °F 54.0 °F 80% 30.02 in 10.0 mi Calm Calm - N/A   Clear
1:53 AM 59.0 °F 55.0 °F 87% 30.02 in 10.0 mi Calm Calm - N/A   Clear
2:53 AM 59.0 °F 55.0 °F 87% 30.03 in 10.0 mi Calm Calm - N/A   Clear
3:53 AM 59.0 °F 54.0 °F 83% 30.03 in 10.0 mi Calm Calm - N/A   Clear
4:53 AM 62.1 °F 53.1 °F 72% 30.03 in 10.0 mi SE 3.5 mph - N/A   Clear
5:53 AM 59.0 °F 52.0 °F 78% 30.04 in 10.0 mi SSE 4.6 mph - N/A   Clear
6:53 AM 59.0 °F 53.1 °F 81% 30.04 in 10.0 mi SE 3.5 mph - N/A   Clear
7:53 AM 62.1 °F 55.0 °F 78% 30.04 in 10.0 mi SSE 4.6 mph - N/A   Clear
8:53 AM 68.0 °F 55.9 °F 65% 30.05 in 10.0 mi Calm Calm - N/A   Clear
9:53 AM 73.0 °F 54.0 °F 51% 30.05 in 10.0 mi Variable 4.6 mph - N/A   Clear
10:53 AM 73.9 °F 51.1 °F 45% 30.05 in 10.0 mi West 5.8 mph - N/A   Clear
11:53 AM 75.0 °F 48.0 °F 38% 30.04 in 10.0 mi Calm Calm - N/A   Clear
12:53 PM 75.9 °F 48.0 °F 37% 30.05 in 10.0 mi Calm Calm - N/A   Clear
1:53 PM 79.0 °F 46.0 °F 31% 30.03 in 10.0 mi Calm Calm - N/A   Clear
2:53 PM 81.0 °F 50.0 °F 34% 30.02 in 10.0 mi NNW 6.9 mph - N/A   Clear
3:53 PM 78.1 °F 48.9 °F 36% 30.02 in 10.0 mi Variable 4.6 mph - N/A   Clear
4:53 PM 78.1 °F 53.1 °F 42% 30.03 in 10.0 mi West 8.1 mph - N/A   Clear
5:53 PM 78.1 °F 54.0 °F 43% 30.02 in 10.0 mi SW 9.2 mph - N/A   Clear
6:53 PM 75.0 °F 52.0 °F 44% 30.03 in 10.0 mi WSW 6.9 mph - N/A   Partly Cloudy
7:53 PM 73.0 °F 52.0 °F 48% 30.04 in 10.0 mi WSW 5.8 mph - N/A   Mostly Cloudy
8:53 PM 70.0 °F 54.0 °F 57% 30.03 in 10.0 mi SW 3.5 mph - N/A   Clear
9:53 PM 68.0 °F 55.0 °F 63% 30.04 in 10.0 mi Calm Calm - N/A   Clear
10:53 PM 66.0 °F 55.9 °F 70% 30.07 in 10.0 mi SSW 4.6 mph - N/A   Partly Cloudy
11:53 PM 66.0 °F 55.9 °F 70% 30.07 in 10.0 mi SW 4.6 mph - N/A   Partly Cloudy